Wind_Speed
12 12 8 2 2 2 3 3 4 3 3 7 30 7 5 7 1 3 27 35 31 28 24 21 19 18 18 17 15 15 13 12 14 13 13 12 12 11 10 9 9 11 11 11 13 13 14 14 15
14 12 5 1 1 2 1 1 7 4 5 26 17 21 4 3 5 22 38 33 30 27 24 20 18 17 16 15 15 14 12 12 12 12 12 11 12 12 13 12 11 13 12 13 13 15 15 15 16
13 5 1 2 3 4 3 5 4 5 8 13 6 12 5 5 13 40 36 34 30 26 22 19 18 17 16 15 15 13 12 12 12 11 11 11 11 11 13 11 11 12 12 13 14 15 16 16 15
7 2 3 1 8 5 4 6 9 5 3 7 14 8 6 4 35 25 36 33 29 25 21 19 17 16 15 14 13 13 13 12 12 12 11 11 11 11 12 11 12 12 13 13 16 17 17 15 15
7 1 2 3 5 2 5 12 8 3 3 10 1 6 15 9 20 36 34 32 28 24 21 18 17 15 15 15 14 13 13 12 12 12 11 11 11 11 12 11 12 13 13 13 17 18 17 17 16
2 1 2 3 5 2 4 6 11 6 6 11 16 16 7 13 30 32 33 29 25 23 21 18 16 14 15 15 15 14 14 13 12 11 11 11 11 12 13 12 13 13 14 16 19 19 16 16 15
1 1 3 3 4 2 3 2 8 10 9 8 15 5 20 25 31 30 29 27 25 23 21 19 18 16 15 15 15 15 14 13 13 13 11 12 13 15 15 15 14 15 16 19 20 19 18 16 17
3 2 3 2 1 2 9 7 12 10 8 15 18 6 17 35 31 29 29 26 24 21 19 19 17 16 16 16 16 16 15 14 14 12 12 13 16 17 16 15 15 16 18 20 21 19 17 14 14
5 2 3 1 2 2 12 5 4 7 17 11 7 23 36 36 33 34 31 28 24 21 19 18 18 17 17 18 18 17 17 18 17 16 15 15 16 16 16 17 16 16 17 19 19 17 14 13 11
5 2 4 3 4 7 14 10 11 6 8 4 24 31 34 35 36 35 31 30 28 24 21 19 18 18 19 20 19 20 20 21 19 18 17 16 15 17 17 17 17 18 18 17 16 14 12 11 7
6 4 2 2 7 14 15 12 8 17 5 14 30 33 36 35 35 32 30 27 27 24 21 19 19 20 21 21 22 23 22 21 19 18 17 15 15 17 18 19 20 20 19 16 13 11 9 5 2
3 9 16 6 8 9 14 11 9 13 7 22 25 34 38 38 37 33 29 27 27 24 21 20 19 21 22 22 24 21 19 18 17 18 16 14 14 17 18 19 20 16 15 14 13 11 9 4 2
6 12 12 18 13 10 16 7 6 10 15 15 28 33 36 35 38 33 26 28 27 26 24 21 20 23 23 23 24 20 16 16 16 14 14 11 11 15 16 16 15 12 13 16 15 15 11 6 4
5 10 16 22 18 14 11 7 7 9 16 9 35 33 38 37 40 35 31 28 27 26 23 23 22 23 24 22 21 16 16 14 12 11 10 8 9 11 14 12 10 13 13 15 13 10 11 9 7
18 10 6 4 14 6 18 5 5 14 18 22 25 32 32 35 39 36 30 29 29 26 25 26 23 25 23 20 19 17 16 12 10 9 9 8 9 9 10 13 13 15 14 13 10 10 7 7 7
3 3 3 3 10 9 7 4 7 12 22 20 30 28 29 33 35 35 31 30 29 27 25 27 24 24 21 18 18 16 13 10 10 10 8 7 11 9 10 18 15 12 11 9 9 8 6 7 8
6 1 2 2 6 6 5 2 9 16 17 22 29 28 29 26 34 38 34 32 31 27 25 26 25 23 20 19 16 14 14 11 12 12 8 6 8 11 13 15 14 11 10 7 8 9 6 3 5
2 2 2 1 6 4 6 2 8 15 17 17 24 31 30 28 38 38 37 34 32 31 29 26 23 24 21 18 16 14 17 15 15 13 10 10 7 8 14 12 13 13 11 10 6 5 8 6 6
3 3 3 3 4 5 15 7 12 16 16 19 23 32 32 29 35 36 36 35 34 35 36 28 24 24 24 23 21 19 16 17 16 14 10 10 10 7 10 16 12 10 11 10 9 7 9 10 9
3 1 5 7 3 7 7 6 6 9 9 15 19 26 33 32 34 29 32 40 38 38 39 31 26 27 26 26 23 22 19 16 14 12 10 8 10 10 10 13 11 14 11 13 11 8 6 10 11
4 3 4 6 5 3 7 4 5 5 4 7 12 14 26 33 34 33 33 38 40 43 42 34 29 27 27 29 27 21 19 17 17 15 13 9 11 12 13 14 14 13 12 12 10 10 8 10 10
6 8 8 5 2 2 0 2 5 6 11 7 15 21 25 30 31 35 36 39 43 45 42 36 31 28 22 29 31 28 25 24 20 17 12 9 10 12 12 13 15 12 15 13 13 13 10 10 8
9 6 7 6 3 4 3 5 3 10 16 19 19 26 34 39 39 39 44 43 47 46 45 40 32 29 24 23 31 30 26 25 20 16 15 12 13 13 13 11 15 13 13 12 15 15 14 12 12
6 3 5 5 3 2 5 4 5 5 16 14 21 32 35 38 35 35 42 44 48 50 48 43 36 32 28 24 30 29 32 29 24 20 19 18 14 15 16 14 14 15 14 12 14 17 16 14 13
5 6 2 2 3 5 3 4 7 16 13 16 25 34 39 37 35 32 42 48 51 54 52 47 40 37 32 27 30 29 33 31 28 23 20 21 17 15 15 16 14 14 13 14 15 14 18 14 15
2 7 5 5 5 3 2 5 1 5 16 25 28 31 38 37 39 41 44 50 53 56 54 48 44 40 36 32 28 31 32 33 30 26 23 23 21 17 13 13 15 12 11 13 13 13 16 18 17
2 4 1 7 4 3 3 5 5 11 13 6 20 22 32 36 39 39 41 49 54 54 55 50 47 44 39 36 29 30 32 36 33 29 23 23 21 18 17 16 16 15 12 12 14 14 15 17 18
7 2 3 4 4 3 3 2 3 10 12 11 3 16 22 28 32 32 39 49 53 54 54 52 48 47 42 39 35 27 31 35 35 31 28 24 23 22 19 19 17 15 15 14 14 14 13 15 18
7 5 5 3 4 5 3 1 5 7 8 8 14 13 24 34 37 37 39 47 53 53 55 55 53 51 48 45 39 33 30 34 36 36 34 30 22 23 21 20 19 19 18 17 16 15 15 16 16
10 5 4 4 5 2 2 2 8 10 10 17 21 24 15 36 36 41 34 41 37 41 48 55 55 53 50 47 43 38 32 29 34 38 38 36 31 25 25 23 23 21 18 22 21 18 17 17 17
Wind_Direction
136 142 145 131 38 116 264 279 333 213 152 161 154 154 166 97 153 180 145 158 160 156 155 152 152 153 152 146 145 138 128 123 123 122 123 114 119 120 126 129 137 145 135 139 138 131 126 122 118
142 143 153 148 158 283 292 171 252 332 309 140 149 127 82 93 118 140 148 158 161 158 157 153 154 152 150 152 153 145 133 129 127 127 122 116 109 115 114 113 119 129 133 129 136 133 128 125 128
139 141 219 188 199 205 228 280 278 314 159 143 91 91 80 112 144 142 152 157 162 158 157 155 154 149 147 150 153 150 143 137 134 130 125 119 116 122 119 124 118 121 123 126 128 133 132 128 125
153 187 264 277 246 201 205 197 227 317 110 71 114 71 67 289 142 151 152 160 162 159 160 159 155 151 150 144 146 147 145 140 135 132 129 127 121 118 120 113 119 114 117 127 137 132 132 127 123
161 206 279 261 275 223 209 205 175 274 65 98 74 96 116 111 150 149 152 160 163 160 162 161 159 160 150 155 151 147 145 143 135 135 133 130 130 128 126 118 115 121 123 132 137 132 128 126 122
193 251 267 270 325 56 305 214 191 228 114 110 107 107 117 151 150 150 153 160 164 161 161 159 158 159 154 150 148 147 147 141 136 137 138 134 132 130 121 118 113 115 120 128 134 131 127 121 125
207 176 249 271 106 317 181 101 119 111 136 129 132 89 132 150 152 152 155 160 162 162 163 161 158 158 149 150 147 147 142 139 138 137 138 135 134 130 124 121 120 122 127 129 132 133 128 125 122
234 222 281 346 307 153 158 142 144 132 88 133 128 157 151 156 151 152 154 159 162 164 164 162 159 156 154 150 148 145 140 138 130 133 130 130 132 129 126 123 120 124 130 133 137 133 129 125 124
213 280 271 246 161 131 151 121 138 93 132 129 13 150 152 158 155 153 156 161 163 164 163 162 159 156 150 148 145 141 137 129 124 119 124 129 127 128 123 119 120 122 129 138 139 139 134 132 128
194 212 246 133 136 149 162 148 144 125 146 110 115 136 159 162 162 159 161 164 167 165 164 164 164 157 153 150 146 139 134 128 121 117 118 128 128 125 123 121 122 123 130 137 141 140 136 135 129
175 222 189 172 124 154 155 136 140 140 187 134 144 154 166 169 169 164 166 170 169 164 168 166 162 157 155 152 147 138 136 129 122 116 118 124 132 132 128 128 130 127 128 126 130 137 131 114 123
295 259 252 266 178 135 148 136 123 158 149 155 159 170 171 176 177 175 172 173 169 169 168 165 162 158 156 155 152 145 140 140 135 125 118 116 125 136 138 136 133 131 132 133 131 130 151 161 145
238 270 272 276 233 156 139 161 134 128 155 185 177 173 179 180 183 182 174 170 173 170 166 163 162 158 158 157 153 147 148 146 142 142 135 138 139 137 146 145 146 134 144 140 137 136 144 137 141
257 279 285 277 174 159 137 144 138 168 157 179 186 171 176 183 185 180 172 173 173 165 160 160 159 161 161 163 161 160 157 155 155 157 157 146 156 164 162 158 151 157 145 143 137 139 147 146 133
267 273 291 79 141 141 124 126 190 175 173 170 178 166 171 187 187 183 176 177 165 166 161 159 157 163 164 165 168 161 165 165 160 166 175 167 168 173 162 176 159 141 143 147 148 141 151 156 142
282 28 13 178 156 158 185 162 174 174 175 176 176 174 169 183 194 190 186 181 173 170 170 167 163 166 171 172 176 174 178 179 178 182 170 177 184 176 171 161 163 161 153 142 157 164 154 142 124
358 263 346 108 221 153 213 197 176 178 166 173 177 184 176 184 195 194 194 188 182 185 181 176 178 175 175 182 185 188 199 197 186 193 184 177 186 186 168 168 178 178 175 171 148 168 162 152 134
167 5 4 284 189 141 198 262 146 187 167 176 184 188 183 187 197 196 197 196 194 194 190 187 184 185 188 195 198 199 207 203 201 205 207 200 179 177 192 186 178 182 184 180 173 174 176 189 198
154 195 281 222 197 174 206 171 177 191 188 189 194 193 188 189 196 199 198 201 203 201 193 192 191 186 192 194 195 194 199 196 194 204 203 203 201 194 166 179 179 179 177 184 176 177 186 172 172
232 298 300 296 315 191 188 184 179 191 206 193 196 195 192 192 193 197 201 204 206 201 198 195 198 194 200 202 198 201 205 209 202 199 207 206 192 192 185 189 189 176 176 186 198 199 207 190 196
261 181 220 234 312 48 107 76 173 243 250 230 233 221 205 200 200 198 201 204 206 201 198 198 200 203 206 201 201 204 211 209 200 217 208 217 203 201 202 193 184 187 190 189 187 202 201 175 181
262 183 229 242 111 274 93 178 188 216 249 244 231 225 219 204 203 202 203 208 207 205 203 201 203 204 207 207 211 213 212 212 214 214 216 228 215 204 203 201 202 212 196 208 210 206 199 208 198
236 182 183 206 181 93 346 82 232 178 238 241 218 220 219 210 200 204 211 211 211 206 205 205 208 211 212 213 210 213 216 220 226 223 215 218 219 210 207 206 206 204 210 216 215 215 211 215 212
232 139 58 52 110 61 236 119 279 191 225 227 211 217 219 219 211 208 216 215 212 208 208 207 209 214 216 218 212 218 217 216 223 229 226 218 219 211 206 209 218 221 218 217 216 216 212 217 216
102 74 334 40 54 190 214 91 231 236 257 227 205 207 214 210 214 203 203 206 209 206 208 209 211 214 217 216 217 217 214 216 222 221 227 217 219 214 210 218 223 221 222 225 227 227 215 220 224
199 153 152 169 168 192 177 200 336 305 280 244 223 215 213 206 209 206 207 212 211 210 211 212 214 216 218 218 219 218 215 216 214 218 224 226 228 227 226 225 218 226 230 223 229 228 227 233 222
298 42 247 104 12 76 264 294 6 358 7 280 217 212 218 213 212 212 210 212 214 214 214 216 218 219 221 223 220 221 217 213 215 220 226 228 234 240 240 236 231 229 237 240 237 236 231 229 226
78 316 54 11 122 158 319 62 306 344 352 353 333 231 222 220 218 222 212 214 219 219 219 219 222 222 224 224 222 223 224 220 220 223 227 231 235 236 247 244 236 232 236 243 243 239 233 235 229
16 11 11 111 85 143 140 352 332 320 325 332 326 278 232 221 218 222 214 216 222 224 223 223 223 221 224 223 223 223 224 225 225 226 227 230 233 230 242 240 241 243 244 244 250 248 242 246 235
92 63 88 97 329 17 148 223 344 322 324 8 360 349 295 232 221 225 224 217 219 220 220 225 225 226 227 228 226 226 226 228 229 229 227 229 232 235 233 233 238 243 254 249 251 257 248 246 243
Height
1511 1514 1515 1516 1524 1522 1520 1508 1505 1499 1499 1499 1506 1510 1512 1514 1517 1532 1526 1533 1539 1543 1546 1549 1552 1554 1556 1557 1559 1560 1561 1561 1562 1562 1562 1562 1562 1562 1563 1564 1564 1564 1565 1567 1567 1568 1569 1569 1570
1511 1513 1516 1516 1523 1521 1516 1505 1503 1499 1501 1503 1507 1509 1513 1518 1518 1521 1528 1536 1541 1545 1548 1550 1554 1556 1557 1559 1561 1562 1563 1563 1563 1564 1564 1564 1565 1565 1565 1566 1565 1566 1567 1568 1570 1570 1571 1572 1572
1512 1514 1516 1515 1516 1513 1515 1508 1503 1501 1500 1504 1508 1510 1515 1518 1519 1523 1530 1536 1542 1546 1550 1552 1555 1557 1559 1561 1562 1564 1564 1564 1565 1565 1566 1567 1567 1567 1567 1567 1568 1568 1569 1570 1571 1572 1573 1575 1575
1512 1516 1516 1517 1512 1508 1506 1505 1504 1505 1505 1505 1508 1515 1519 1520 1523 1525 1531 1538 1543 1548 1552 1554 1557 1559 1561 1562 1563 1564 1565 1566 1566 1567 1568 1569 1569 1569 1570 1570 1570 1571 1570 1571 1572 1575 1576 1577 1578
1513 1514 1516 1513 1506 1503 1503 1503 1504 1508 1508 1508 1511 1520 1523 1527 1527 1530 1534 1541 1545 1549 1553 1556 1558 1560 1562 1563 1565 1566 1566 1567 1569 1570 1570 1570 1571 1571 1571 1572 1572 1572 1572 1573 1575 1577 1579 1579 1581
1513 1514 1518 1514 1503 1501 1500 1504 1507 1509 1509 1511 1516 1517 1528 1530 1532 1534 1538 1544 1548 1551 1554 1557 1560 1561 1563 1565 1567 1567 1568 1570 1571 1571 1571 1572 1573 1574 1574 1574 1574 1575 1574 1576 1577 1579 1580 1581 1583
1513 1514 1516 1508 1511 1502 1500 1499 1507 1508 1510 1513 1515 1519 1529 1532 1536 1539 1542 1547 1551 1553 1556 1559 1561 1563 1565 1567 1568 1569 1570 1572 1573 1573 1573 1574 1575 1575 1576 1576 1577 1577 1577 1578 1580 1581 1583 1585 1586
1513 1513 1512 1505 1508 1505 1504 1506 1508 1510 1511 1513 1516 1520 1526 1531 1537 1541 1545 1550 1553 1555 1557 1560 1562 1564 1566 1568 1569 1570 1572 1573 1575 1575 1575 1576 1576 1577 1578 1578 1579 1579 1580 1581 1583 1585 1586 1587 1588
1512 1515 1515 1506 1505 1505 1506 1507 1510 1512 1513 1516 1516 1517 1525 1531 1537 1542 1547 1551 1554 1557 1559 1561 1564 1566 1568 1570 1571 1572 1574 1576 1577 1577 1578 1579 1580 1580 1580 1581 1582 1582 1583 1585 1586 1588 1589 1590 1591
1510 1513 1504 1500 1500 1503 1506 1507 1508 1515 1516 1518 1520 1527 1530 1534 1538 1541 1546 1551 1554 1557 1560 1563 1565 1568 1570 1572 1573 1575 1576 1578 1579 1580 1581 1582 1582 1583 1583 1584 1585 1586 1587 1589 1590 1591 1592 1593 1593
1503 1505 1498 1498 1499 1501 1504 1507 1509 1513 1519 1518 1520 1524 1531 1534 1540 1543 1546 1549 1552 1557 1561 1564 1567 1570 1572 1574 1575 1577 1579 1581 1582 1583 1584 1585 1585 1585 1586 1587 1588 1589 1590 1592 1593 1594 1595 1595 1595
1504 1496 1497 1497 1499 1501 1504 1507 1510 1512 1516 1519 1524 1527 1530 1534 1539 1543 1547 1552 1555 1558 1562 1566 1569 1572 1574 1576 1578 1580 1581 1582 1584 1585 1586 1587 1589 1589 1589 1590 1591 1593 1594 1594 1595 1595 1596 1596 1596
1502 1495 1494 1494 1495 1499 1503 1507 1508 1514 1516 1517 1526 1529 1533 1537 1541 1545 1549 1552 1556 1559 1562 1566 1570 1573 1576 1578 1580 1582 1583 1584 1586 1587 1589 1590 1591 1592 1592 1593 1594 1595 1595 1596 1597 1598 1598 1597 1597
1495 1493 1492 1488 1491 1497 1503 1508 1508 1513 1514 1516 1523 1528 1532 1537 1541 1546 1549 1553 1556 1560 1563 1566 1571 1574 1577 1580 1582 1583 1585 1586 1587 1589 1590 1591 1592 1594 1594 1595 1595 1596 1597 1598 1598 1599 1599 1598 1599
1494 1495 1489 1488 1491 1497 1502 1509 1505 1506 1510 1512 1521 1528 1532 1537 1541 1545 1549 1552 1556 1560 1564 1567 1571 1575 1578 1581 1584 1585 1587 1587 1588 1590 1591 1592 1594 1595 1596 1597 1597 1598 1599 1599 1600 1600 1600 1600 1601
1495 1495 1504 1495 1494 1497 1500 1508 1504 1506 1508 1512 1520 1525 1531 1536 1540 1545 1549 1552 1556 1560 1564 1568 1572 1575 1579 1582 1584 1587 1588 1588 1589 1591 1592 1593 1595 1597 1597 1598 1599 1600 1600 1601 1601 1602 1602 1602 1602
1504 1511 1504 1502 1498 1496 1502 1506 1504 1506 1509 1511 1517 1523 1527 1533 1538 1542 1547 1550 1554 1558 1563 1567 1571 1574 1578 1581 1584 1587 1589 1590 1590 1591 1593 1594 1595 1596 1597 1599 1600 1601 1601 1602 1602 1603 1604 1603 1604
1512 1509 1507 1505 1500 1498 1504 1503 1505 1507 1507 1510 1515 1520 1525 1530 1534 1538 1544 1549 1553 1556 1561 1565 1569 1574 1577 1580 1583 1586 1588 1590 1591 1592 1594 1595 1595 1596 1597 1598 1599 1601 1602 1603 1603 1604 1605 1606 1606
1500 1505 1508 1499 1496 1499 1498 1500 1502 1506 1508 1510 1514 1516 1520 1527 1531 1537 1541 1545 1551 1555 1559 1562 1566 1570 1575 1579 1581 1584 1587 1589 1591 1592 1594 1595 1596 1596 1597 1599 1600 1601 1602 1604 1605 1605 1606 1607 1607
1498 1504 1509 1497 1490 1497 1495 1502 1504 1506 1508 1510 1513 1515 1515 1521 1528 1533 1538 1541 1546 1551 1555 1559 1564 1568 1572 1576 1579 1583 1587 1589 1590 1592 1594 1595 1595 1597 1598 1600 1600 1602 1603 1605 1606 1606 1607 1607 1608
1498 1505 1507 1508 1494 1493 1499 1514 1514 1509 1509 1510 1512 1515 1517 1519 1522 1527 1533 1537 1542 1548 1553 1557 1561 1566 1570 1575 1578 1581 1585 1588 1589 1591 1593 1595 1596 1597 1598 1600 1601 1602 1603 1605 1606 1607 1608 1608 1609
1507 1493 1495 1498 1504 1515 1498 1531 1513 1510 1507 1508 1511 1512 1513 1515 1519 1523 1526 1532 1537 1543 1550 1554 1559 1564 1568 1571 1575 1578 1582 1585 1588 1590 1592 1594 1595 1596 1598 1599 1600 1601 1602 1604 1606 1607 1608 1609 1609
1495 1487 1493 1495 1502 1506 1504 1521 1512 1506 1508 1502 1504 1506 1505 1508 1511 1515 1520 1523 1530 1539 1545 1550 1555 1560 1564 1567 1571 1576 1580 1584 1588 1589 1591 1593 1595 1596 1596 1598 1600 1601 1602 1603 1605 1607 1609 1609 1610
1478 1486 1497 1506 1512 1530 1510 1516 1517 1508 1489 1487 1495 1494 1499 1505 1509 1513 1517 1522 1527 1534 1540 1545 1550 1555 1561 1564 1569 1572 1576 1581 1584 1587 1589 1591 1593 1594 1596 1597 1599 1600 1601 1602 1604 1606 1608 1609 1609
1484 1498 1525 1526 1532 1534 1510 1517 1506 1484 1476 1476 1478 1483 1488 1498 1504 1510 1512 1516 1522 1528 1534 1539 1544 1550 1556 1560 1565 1568 1572 1577 1581 1584 1587 1590 1592 1593 1594 1596 1597 1599 1601 1602 1603 1604 1606 1608 1609
1484 1493 1523 1530 1541 1525 1513 1517 1502 1484 1475 1471 1473 1480 1483 1492 1497 1502 1504 1509 1515 1522 1527 1534 1540 1545 1551 1556 1560 1565 1569 1574 1578 1582 1585 1587 1589 1591 1593 1595 1596 1598 1599 1601 1602 1603 1605 1606 1607
1488 1502 1493 1521 1525 1524 1521 1502 1491 1483 1476 1471 1471 1478 1480 1485 1490 1496 1501 1504 1511 1516 1521 1527 1534 1541 1547 1552 1557 1561 1565 1569 1574 1578 1582 1584 1587 1590 1592 1594 1595 1597 1598 1599 1601 1602 1603 1604 1606
1493 1495 1507 1516 1532 1530 1527 1515 1519 1500 1492 1479 1477 1477 1481 1486 1490 1496 1501 1502 1505 1510 1515 1520 1526 1533 1538 1546 1551 1555 1561 1565 1570 1575 1578 1581 1584 1587 1589 1591 1594 1596 1596 1598 1599 1601 1602 1603 1604
1508 1518 1520 1520 1526 1539 1541 1529 1506 1505 1497 1492 1486 1480 1476 1478 1484 1491 1496 1498 1501 1504 1509 1514 1521 1526 1533 1540 1545 1550 1555 1560 1565 1570 1573 1577 1581 1583 1586 1588 1591 1593 1595 1596 1598 1599 1600 1601 1602
1514 1525 1530 1538 1533 1535 1532 1537 1509 1506 1499 1493 1488 1479 1470 1471 1478 1486 1494 1498 1502 1506 1509 1511 1516 1523 1528 1535 1541 1545 1550 1554 1559 1563 1567 1572 1576 1579 1582 1585 1587 1589 1591 1593 1595 1596 1598 1598 1600